Hourly Data Report for September 10, 2017

All times are specified in Local Standard Time (LST). Add 1 hour to adjust for Daylight Saving Time where and when it is observed.

IQALUIT CLIMATE
NUNAVUT

63°44'50.000" N
68°32'40.000" W
33.50 m
2402592
71321
XFB

Download Data

Hourly Data (September 2017)
Hourly Data Report for September 10, 2017
Temp Definition
°C
Dew Point Temp Definition
°C
Rel Hum Definition
%
Wind Dir Definition
10's deg

Wind Spd Definition
km/h
Visibility Definition
km
Stn Press Definition
kPa
Hmdx Definition


Wind Chill Definition


Weather Definition


TIME
00:00 2.1 -0.2 85 31 35   99.74     LegendNANA
01:00 1.6 -0.7 85 31 36   99.88     LegendNANA
02:00 1.9 -1.2 80 31 30   99.99     LegendNANA
03:00 2.0 -1.6 77 31 28   100.11     LegendNANA
04:00 2.2 -1.7 75 31 34   100.22     LegendNANA
05:00 2.3 -2.0 73 31 33   100.35     LegendNANA
06:00 2.4 -1.3 76 30 33   100.46     LegendNANA
07:00 2.7 -2.2 70 30 37   100.56     LegendNANA
08:00 3.2 -1.8 70 31 38   100.64     LegendNANA
09:00 3.4 -1.5 70 30 39   100.71     LegendNANA
10:00 3.8 -1.0 71 31 40   100.81     LegendNANA
11:00 3.9 -2.3 64 30 40   100.86     LegendNANA
12:00 4.6 -2.5 60 32 48   100.93     LegendNANA
13:00 4.8 -2.4 59 33 41   101.00     LegendNANA
14:00 5.2 -3.5 53 31 42   101.08     LegendNANA
15:00 5.0 -3.8 53 31 42   101.15     LegendNANA
16:00 4.9 -4.0 53 31 40   101.19     LegendNANA
17:00 3.9 -3.3 59 32 33   101.24     LegendNANA
18:00 3.2 -3.0 64 33 33   101.28     LegendNANA
19:00 2.3 -3.0 68 32 27   101.31     LegendNANA
20:00 1.6 -2.9 72 31 21   101.36     LegendNANA
21:00 1.2 -3.1 73 30 28   101.39     LegendNANA
22:00 0.7 -2.8 77 30 24   101.39     LegendNANA
23:00 1.1 -3.1 73 30 21   101.41     LegendNANA

Notes on Data Quality.

Legend

  • E = Estimated
  • M = Missing
  • NA = Not Available
  • ‡ = Partner data that is not subject to review by the National Climate Archives
Date modified: